Location: Fort Worth, Tx
(32.7431°N, 97.3695°W)
Time: 07:25:59
(UTC-05:00)

Explorer 11/Cluster Stage 4 - Pass Details

Date: 10 February 2026
Orbit: 463 x 1176 km, 28.8° (Epoch: 5 March)

Event Time Altitude Azimuth Distance (km) Brightness Sun altitude
Rises 21:35:38 0° 269° (W) 2,901 10.7 -30.9°
Reaches altitude 10° 21:37:55 10° 261° (W) 2,094 9.6 -31.4°
Enters shadow 21:41:10 33° 225° (SW) 1,230 7.8 -32.1°
